Location: Ajisawe
(8.4333°N, 4.3833°E)
Time: 20:42:26
(UTC+00:00)

Vanguard 2 Rocket - Pass Details

Date: 19 April 2021
Orbit: 554 x 3326 km, 32.9° (Epoch: 16 May)

Event Time Altitude Azimuth Distance (km) Brightness Sun altitude
Rises 22:39:50 0° 284° (WNW) 5,242 11.1 -64.9°
Enters shadow 22:42:45 - 278° (W) 4,337 10.5 -65.3°
Reaches altitude 10° 22:44:56 10° 271° (W) 3,678 - -65.6°
Maximum altitude 22:51:03 20° 227° (SW) 2,289 - -66.4°
Drops below altitude 10° 22:55:26 10° 179° (S) 2,500 - -67.0°
Sets 22:58:07 0° 161° (SSE) 3,169 - -67.3°
